Regional Weather Roundup
Issued by NWS

Home | Current Version | Previous Version | Graphics & Text | Print | Product List | Glossary On
Versions: 1 2 3 4 5 6 7 8 9 10 11 12 13 14 15 16 17 18 19 20 21 22 23 24 25 26 27 28 29 30 31 32 33 34 35 36 37 38 39 40 41 42 43 44 45 46 47 48 49 50
581
ASUS43 KLMK 161002
RWRKY
KENTUCKY REGIONAL WEATHER ROUNDUP
NATIONAL WEATHER SERVICE LOUISVILLE KY
600 AM EDT WED AUG 16 2017

NOTE "FAIR" INDICATES FEW OR NO CLOUDS BELOW 12,000 FEET
WITH NO SIGNIFICANT WEATHER AND/OR OBSTRUCTIONS TO VISIBILITY.

KYZ001>023-026-027-061>063-070>075-161100-
WESTERN AND SOUTH CENTRAL KENTUCKY

CITY           SKY/WX    TMP DP  RH WIND       PRES   REMARKS
PADUCAH        PTCLDY    72  69  90 E3        29.96S
HENDERSON      FOG       70  69  97 CALM      29.98R VSB 3/4
OWENSBORO      CLOUDY    71  70  96 S6        29.99R
HOPKINSVILLE   CLOUDY    71  70  98 CALM      29.99R
BOWLING GREEN  MOCLDY    73  72  96 CALM      30.01R
GLASGOW        MOCLDY    71  71 100 CALM      30.01R
$$

KYZ024-025-028>034-038-045-046-053-161100-
NORTH CENTRAL KENTUCKY

CITY           SKY/WX    TMP DP  RH WIND       PRES   REMARKS
LOUISVILLE/SDF PTCLDY    74  71  91 CALM      29.99R
LOUISVILLE/LOU PTCLDY    70  70 100 CALM      30.00R FOG
FORT KNOX      FOG       68  68 100 CALM      29.99R VSB 1/2
$$

KYZ035>037-039>044-047>052-055>060-089>105-161100-
NORTHEAST KENTUCKY

CITY           SKY/WX    TMP DP  RH WIND       PRES   REMARKS
LEXINGTON      CLEAR     68  65  90 CALM      30.03R
COVINGTON      PTCLDY    70  69  97 CALM      30.02R
FRANKFORT      CLEAR     70  66  87 CALM      30.00R
$$

KYZ054-064>069-076>088-106>120-161100-
SOUTHEAST KENTUCKY

CITY           SKY/WX    TMP DP  RH WIND       PRES   REMARKS
JACKSON        PTCLDY    71  69  93 CALM      30.05R FOG
LONDON         FOG       69  68  96 CALM      30.05R VSB 1/4
SOMERSET       NOT AVBL
MIDDLESBORO    CLOUDY    69  69 100 CALM      30.07R
MONTICELLO     FOG       68  68 100 MISG      30.06R VSB 1/2
$$





USA.gov is the U.S. government's official web portal to all federal, state and local government web resources and services.